FW1340 Weather Reports


time (UTC)temp
C
wind
direction
speed
KPH
gust
KPH
rain 1hr
cm
rain 24hr
cm
rain mn
cm
humidity
%
barometer
mb
20260504043004 14 278 0.0 0.0 0.00 0.00 0.00 72 1013.7
20260504041559 14 275 0.0 0.0 0.00 0.00 0.00 71 1013.6
20260504040106 15 262 0.0 0.0 0.00 0.00 0.00 69 1013.5
20260504034603 15 252 0.0 0.0 0.00 0.00 0.00 68 1013.3
20260504033108 15 281 0.0 0.0 0.00 0.00 0.00 66 1013.1
20260504031554 16 258 0.0 0.0 0.00 0.00 0.00 65 1012.8
20260504030053 16 243 0.0 0.0 0.00 0.00 0.00 64 1012.5
20260504024552 16 264 0.0 0.0 0.00 0.00 0.00 63 1012.5
20260504023051 16 261 0.0 0.0 0.00 0.00 0.00 62 1012.3
20260504021553 17 265 0.0 0.0 0.00 0.00 0.00 60 1012.0
20260504020050 17 254 0.0 0.0 0.00 0.00 0.00 60 1011.9
20260504014551 18 263 0.0 0.0 0.00 0.00 0.00 60 1011.8
20260504013050 18 271 0.0 0.0 0.00 0.00 0.00 60 1011.7
20260504011550 19 275 0.0 0.0 0.00 0.00 0.00 58 1011.8
20260504010054 20 288 0.0 0.0 0.00 0.00 0.00 57 1011.8
20260504004545 20 257 0.0 0.0 0.00 0.00 0.00 57 1011.8
20260504003044 20 256 0.0 0.0 0.00 0.00 0.00 58 1011.5
20260504001602 20 277 0.0 0.0 0.00 0.00 0.00 57 1011.5
20260504000045 20 254 0.0 0.0 0.00 0.00 0.00 56 1011.5
20260503234542 21 275 0.0 0.0 0.00 0.00 0.00 55 1011.4
20260503233042 21 260 0.0 0.0 0.00 0.00 0.00 53 1011.3
20260503231540 22 216 0.0 0.0 0.00 0.00 0.00 54 1011.3
20260503230040 21 215 0.0 0.0 0.00 0.00 0.00 55 1011.3
20260503224641 21 225 0.0 0.0 0.00 0.00 0.00 54 1011.6
20260503223041 21 231 0.0 0.0 0.00 0.00 0.00 54 1011.5
20260503221542 21 269 0.0 0.0 0.00 0.00 0.00 54 1011.7
20260503220042 21 261 0.0 0.0 0.00 0.00 0.00 57 1011.9
20260503214533 21 258 0.0 0.0 0.00 0.00 0.00 56 1011.9
20260503213038 21 246 0.0 0.0 0.00 0.00 0.00 56 1012.1
20260503211529 21 279 0.0 0.0 0.00 0.00 0.00 57 1012.2
20260503210026 20 241 0.0 0.0 0.00 0.00 0.00 57 1012.3
20260503204525 20 256 0.0 0.0 0.00 0.00 0.00 60 1012.4
20260503203020 19 265 0.0 0.0 0.00 0.00 0.00 61 1012.4
20260503201527 18 331 0.0 0.0 0.00 0.00 0.00 63 1012.6
20260503200017 18 229 0.0 0.0 0.00 0.00 0.00 64 1012.5
20260503194518 18 227 0.0 0.0 0.00 0.00 0.00 63 1012.6
20260503193014 18 300 0.0 0.0 0.00 0.00 0.00 61 1012.6
20260503191514 18 278 0.0 0.0 0.00 0.00 0.00 63 1012.7
20260503190017 18 266 0.0 0.0 0.00 0.00 0.00 64 1013.0
20260503184504 17 347 0.0 0.0 0.00 0.00 0.00 65 1013.1
20260503183006 17 264 0.0 0.0 0.00 0.00 0.00 65 1013.1
20260503181504 17 244 0.0 0.0 0.00 0.00 0.00 66 1013.0
20260503180135 17 276 0.0 0.0 0.00 0.00 0.00 67 1013.1
20260503174558 16 254 0.0 0.0 0.00 0.00 0.00 70 1013.1
20260503173100 16 270 0.0 0.0 0.00 0.00 0.00 73 1013.1
20260503171550 15 282 0.0 0.0 0.00 0.00 0.00 73 1013.1
20260503120107 11 265 0.0 0.0 0.00 0.00 0.00 86 1010.3
20260503100104 12 283 0.0 0.0 0.00 0.00 0.00 86 1010.2
20260503081538 12 300 0.0 0.0 0.00 0.00 0.00 85 1011.0
20260503071535 12 271 0.0 0.0 0.00 0.00 0.00 84 1011.0
20260503054525 13 244 0.0 0.0 0.00 0.00 0.00 83 1011.4
20260503053035 13 273 0.0 0.0 0.00 0.00 0.00 83 1011.4
20260503051523 13 287 0.0 0.0 0.00 0.00 0.00 83 1011.5
20260503050022 13 278 0.0 0.0 0.00 0.00 0.00 82 1011.3
20260503044558 13 263 0.0 0.0 0.00 0.00 0.00 81 1011.2